Flag for Austria Weather past 2 weeks in Eisenstadt, Burgenland, Austria

Now
60 °F

Light rain. Overcast.


Feels Like: 60 °F
Forecast: 59 / 74 °F
Wind: 7 mph from Northwest

Location: Eisenstadt

Current Time: May 30, 2015 at 7:41:53 PM

Latest Report: May 30, 2015 at 7:00 PM


Visibility: 6 mi

Pressure: 29.96 "Hg

Humidity: 84%

Dew point: 56 °F

Location of EisenstadtLocation

Historic Weather in Eisenstadt — Graph

°F

Eisenstadt temperature yesterday

Maximum temperature yesterday: 74 °F (at 4:00 PM)
Minimum temperature yesterday: 45 °F (at 5:00 AM)
Average temperature yesterday: 61 °F

Past Weeks' High & Low Weather Summary

 TemperatureHumidityPressure
High75 °F (May 19, 12:00 PM)95% (May 16, 12:00 AM)30.23 "Hg (May 16, 12:00 AM)
Low44 °F (May 28, 2:00 AM)41% (May 29, 5:00 PM)29.73 "Hg (May 19, 6:00 AM)
Average59 °F71%29.97 "Hg
* Reported May 15 6:00 PM — May 30 6:00 PM, Eisenstadt, Weather by CustomWeather, © 2015

Note: Actual official high and low records may vary slightly from our data, if they occured in-between our weather recording intervals... More about our weather records

Advertising

Eisenstadt weather history for previous 24 hours

 ConditionsComfort  
Time TempWeatherWind HumidityBarometerVisibility
6:00 PM
Sat, May 30
64 °FFog.6 mph77%29.95 "HgN/A
5:00 PM73 °FOvercast.1 mph45%29.91 "Hg11 mi
4:00 PM74 °FMild.3 mph44%29.90 "HgN/A
3:00 PM74 °FMild.2 mph50%29.90 "HgN/A
2:00 PM73 °FPartly sunny.3 mph55%29.92 "Hg12 mi
1:00 PM71 °FMild.2 mph53%29.92 "HgN/A
12:00 PM72 °FMild.3 mph53%29.93 "HgN/A
11:00 AM72 °FMild.2 mph50%29.92 "HgN/A
10:00 AM70 °FMild.2 mph62%29.92 "HgN/A
9:00 AM66 °FMild.2 mph69%29.91 "HgN/A
8:00 AM65 °FPassing clouds.2 mph65%29.90 "Hg19 mi
7:00 AM60 °FScattered clouds.2 mph76%29.90 "Hg19 mi
6:00 AM54 °FCool.1 mph88%29.90 "HgN/A
4:00 AM54 °FPassing clouds.3 mph89%29.88 "Hg12 mi
3:00 AM55 °FCool.3 mph87%29.86 "HgN/A
2:00 AM58 °FPassing clouds.5 mph80%29.85 "Hg12 mi
1:00 AM60 °FCool.5 mph73%29.84 "HgN/A
12:00 AM58 °FCool.2 mph79%29.86 "HgN/A
10:00 PM
Fri, May 29
61 °FCool.1 mph75%29.87 "HgN/A
9:00 PM65 °FMild.1 mph66%29.86 "HgN/A
8:00 PM69 °FPartly sunny.2 mph57%29.86 "Hg12 mi
7:00 PM71 °FOvercast.5 mph51%29.86 "Hg12 mi
Weather by CustomWeather, © 2015

See weather overviewHow to use our weather pages